Hourly Data Report for June 21, 2021

FISHER BRANCH (AUT)
MANITOBA
Current Station Operator: ECCC - MSC

51°05'00.100" N
97°33'16.200" W
253.00 m
50309J6
71442
WSZ

Download Data

Hourly Data (June 2021)
Hourly Data Report for June 21, 2021
TIME
LST
Temp Definition
°C
Dew Point Definition
°C
Rel Hum Definition
%
Precip. Amount Definition
mm

Wind Dir Definition
10's deg

Wind Spd Definition
km/h
Visibility Definition
km
Stn Press Definition
kPa
Hmdx Definition


Wind Chill Definition


Weather Definition


00:00 6.3 3.2 80 0.0 31 9   98.46     LegendNANA
01:00 4.8 2.5 85 0.0 31 9   98.43     LegendNANA
02:00 5.3 2.8 84 0.0 30 10   98.44     LegendNANA
03:00 4.0 2.3 89 0.0 28 8   98.44     LegendNANA
04:00 3.4 1.9 90 0.0 28 7   98.48     LegendNANA
05:00 4.4 2.6 88 0.0 30 9   98.51     LegendNANA
06:00 7.6 4.5 81 0.0 31 9   98.54     LegendNANA
07:00 9.2 4.3 72 0.0 34 16   98.57     LegendNANA
08:00 9.7 4.0 68 0.0 33 19   98.55     LegendNANA
09:00 11.6 2.5 54 0.0 34 15   98.53     LegendNANA
10:00 10.6 2.2 56 0.0 1 12   98.50     LegendNANA
11:00 12.5 -0.4 41 0.0 32 26   98.45     LegendNANA
12:00 12.9 -0.4 40 0.0 32 19   98.42     LegendNANA
13:00 13.9 0.3 39 0.0 32 16   98.37     LegendNANA
14:00 14.8 2.3 43 0.0 32 17   98.31     LegendNANA
15:00 14.3 2.6 45 0.0 33 13   98.26     LegendNANA
16:00 13.0 5.0 58 0.0 32 16   98.23     LegendNANA
17:00 13.9 3.3 49 0.0 32 9   98.17     LegendNANA
18:00 13.9 3.2 48 0.0 32 7   98.11     LegendNANA
19:00 13.0 4.9 58 0.0 8 8   98.06     LegendNANA
20:00 11.8 6.2 68 0.0 11 8   98.00     LegendNANA
21:00 9.6 5.4 75 0.0 13 9   97.96     LegendNANA
22:00 7.9 4.2 77 0.0 14 12   97.97     LegendNANA
23:00 8.0 4.3 77 0.0 16 10   97.94     LegendNANA

Notes on Data Quality.

Legend

  • E = Estimated
  • M = Missing
  • NA = Not Available*
  • [empty] = Indicates an unobserved value
Date modified: